Lake Burton Weather Center

Moon Phase Calendar



Lake Burton Water Level
Online Cameras

 


      

Current Conditions in Clayton
11/27/2020 4:21:23 AM

44°F
Feels Like 38
Clouds
Humidity
68%
Pressure
30.21"
Wind
4 mph (ENE)
Dew Point
34°F
UV Index
3/10 (Moderate)
Visibility
6 mi

Hourly Forecast

Date & Time Fri, Nov 27
4:00 AM
Fri, Nov 27
5:00 AM
Fri, Nov 27
6:00 AM
Fri, Nov 27
7:00 AM
Fri, Nov 27
8:00 AM
Fri, Nov 27
9:00 AM
Fri, Nov 27
10:00 AM
Fri, Nov 27
11:00 AM
Fri, Nov 27
12:00 PM
Fri, Nov 27
1:00 PM
Fri, Nov 27
2:00 PM
Fri, Nov 27
3:00 PM
Fri, Nov 27
4:00 PM
Fri, Nov 27
5:00 PM
Fri, Nov 27
6:00 PM
Fri, Nov 27
7:00 PM
Fri, Nov 27
8:00 PM
Fri, Nov 27
9:00 PM
Fri, Nov 27
10:00 PM
Fri, Nov 27
11:00 PM
Sat, Nov 28
12:00 AM
Sat, Nov 28
1:00 AM
Sat, Nov 28
2:00 AM
Sat, Nov 28
3:00 AM
Sat, Nov 28
4:00 AM
Sat, Nov 28
5:00 AM
Sat, Nov 28
6:00 AM
Sat, Nov 28
7:00 AM
Sat, Nov 28
8:00 AM
Sat, Nov 28
9:00 AM
Sat, Nov 28
10:00 AM
Sat, Nov 28
11:00 AM
Sat, Nov 28
12:00 PM
Sat, Nov 28
1:00 PM
Sat, Nov 28
2:00 PM
Sat, Nov 28
3:00 PM
Sat, Nov 28
4:00 PM
Sat, Nov 28
5:00 PM
Sat, Nov 28
6:00 PM
Sat, Nov 28
7:00 PM
Sat, Nov 28
8:00 PM
Sat, Nov 28
9:00 PM
Sat, Nov 28
10:00 PM
Sat, Nov 28
11:00 PM
Sun, Nov 29
12:00 AM
Sun, Nov 29
1:00 AM
Sun, Nov 29
2:00 AM
Sun, Nov 29
3:00 AM
Condition
Clouds

Clouds

Clouds

Clouds

Clear

Clear

Clear

Clear

Clear

Clear

Clouds

Clouds

Clouds

Clouds

Clouds

Clouds

Clouds

Clouds

Clouds

Clouds

Clouds

Rain

Rain

Rain

Rain

Rain

Rain

Clouds

Clouds

Clouds

Clouds

Clouds

Clear

Clear

Clear

Clear

Clouds

Clouds

Clouds

Clouds

Clouds

Clouds

Clouds

Clouds

Clouds

Clouds

Clouds

Clouds
Temperature 44°F45°F45°F45°F46°F51°F56°F61°F64°F65°F64°F63°F61°F56°F53°F53°F52°F53°F53°F53°F53°F52°F50°F50°F50°F49°F49°F48°F48°F51°F56°F60°F64°F65°F65°F64°F62°F56°F52°F51°F50°F49°F49°F48°F48°F48°F48°F48°F
Feels Like 38°F40°F40°F40°F40°F46°F51°F55°F58°F60°F59°F59°F58°F52°F49°F48°F47°F48°F47°F48°F48°F47°F46°F46°F45°F45°F45°F44°F43°F47°F52°F58°F62°F64°F63°F61°F59°F54°F50°F49°F48°F47°F47°F46°F46°F45°F45°F45°F
Cloudiness 94%83%65%50%1%0%0%0%3%4%99%99%96%98%98%98%100%100%100%100%100%100%100%100%100%100%100%98%42%22%15%11%9%7%0%6%12%18%27%36%96%84%84%85%89%90%100%100%
Visibility 6 mi6 mi6 mi6 mi6 mi6 mi6 mi6 mi6 mi6 mi6 mi6 mi6 mi6 mi6 mi6 mi6 mi6 mi6 mi6 mi6 mi6 mi6 mi6 mi6 mi6 mi6 mi6 mi6 mi6 mi6 mi6 mi6 mi6 mi6 mi6 mi6 mi6 mi6 mi6 mi6 mi6 mi6 mi6 mi6 mi6 mi6 mi6 mi
Precipitation 0%0%0%0%0%0%0%0%0%0%0%0%0%0%0%0%0%0%0%0%0%25%34%34%33%33%38%42%3%3%0%0%0%0%0%0%0%0%0%0%0%0%0%0%0%0%0%0%
Humidity 68%73%76%78%76%66%53%40%34%34%36%39%48%55%57%56%56%53%52%51%49%56%71%73%75%77%79%79%78%73%65%58%53%49%48%49%55%69%78%82%84%85%86%86%86%85%84%83%
Dew Point 34°F37°F38°F39°F39°F40°F39°F36°F35°F36°F37°F39°F42°F40°F38°F38°F37°F36°F36°F35°F35°F37°F41°F42°F42°F42°F43°F42°F41°F43°F44°F46°F47°F46°F45°F44°F45°F47°F46°F46°F46°F45°F45°F45°F44°F44°F43°F43°F
Pressure 30.21"30.15"30.12"30.12"30.15"30.15"30.15"30.12"30.09"30.06"30.06"30.03"30.03"30.03"30.06"30.06"30.06"30.06"30.06"30.06"30.06"30.06"30.06"30.06"30.06"30.06"30.09"30.09"30.09"30.12"30.12"30.12"30.12"30.09"30.06"30.06"30.06"30.09"30.09"30.12"30.12"30.12"30.15"30.15"30.15"30.15"30.15"30.15"
Wind Speed 4.6 mph4.5 mph4.9 mph5.2 mph5.1 mph4.6 mph4.4 mph4.3 mph3.8 mph4.3 mph4.9 mph4 mph3 mph3.3 mph3.7 mph3.3 mph3.1 mph3.2 mph3.7 mph2.6 mph3.7 mph4.7 mph5.2 mph5.5 mph4.7 mph4.9 mph4.4 mph4 mph4.3 mph4 mph3.5 mph2.8 mph1.6 mph0.8 mph1.1 mph1.5 mph2.7 mph1.8 mph1.5 mph1.3 mph1.7 mph2 mph1.4 mph1.7 mph2.3 mph2 mph1.9 mph2.3 mph
Wind
Direction
325°
NW
332°
NNW
322°
NW
328°
NNW
324°
NW
332°
NNW
326°
NW
304°
NW
313°
NW
298°
WNW
288°
WNW
303°
WNW
302°
WNW
307°
NW
318°
NW
323°
NW
321°
NW
315°
NW
315°
NW
323°
NW
318°
NW
314°
NW
315°
NW
319°
NW
337°
NNW
325°
NW
332°
NNW
333°
NNW
339°
NNW
340°
NNW
348°
NNW
358°
N
353°
N
256°
WSW
241°
WSW
206°
SSW
181°
S
141°
SE
147°
SSE
107°
ESE
47°
NE
47°
NE
54°
NE
59°
ENE
49°
NE
55°
NE
50°
NE
59°
ENE

Daily Forecast

Date High Low Precip. Humidity
Today
Nov 27

Clear
64 °F
44 °F
0%
36%
Saturday
Nov 28

Rain
65 °F
48 °F
42%
49%
Sunday
Nov 29

Rain
51 °F
46 °F
90%
87%
Monday
Nov 30

Rain
53 °F
29 °F
100%
71%
Tuesday
Dec 1

Snow
35 °F
24 °F
28%
71%
Wednesday
Dec 2

Clear
50 °F
27 °F
0%
39%
Thursday
Dec 3

Rain
41 °F
34 °F
100%
89%
Friday
Dec 4

Clear
49 °F
28 °F
0%
55%
Saturday
Dec 5

Clouds
52 °F
31 °F
0%
43%
Sunday
Dec 6

Clear
48 °F
29 °F
0%
50%
Monday
Dec 7

Clear
52 °F
28 °F
0%
41%
Tuesday
Dec 8

Clear
51 °F
34 °F
6%
43%
Wednesday
Dec 9

Clouds
36 °F
26 °F
15%
72%
Thursday
Dec 10

Clear
45 °F
25 °F
0%
50%
Friday
Dec 11

Clear
49 °F
28 °F
0%
49%
Saturday
Dec 12

Clouds
39 °F
27 °F
0%
67%


Temperature 8-14 Day Outlook



Precipitation 8-14 Day Outlook




Quick Links
Lake Burton News
Lake Burton Photos
Lake Burton Videos




About Us
Contact Us
Site Map
Search Site
Advertise With Us
   
Burton.USLakes.info
THE LAKE BURTON WEBSITE

Copyright 2020, Lakes Online
Privacy    |    Legal